Theta_e
348 345 342 342 344 344 343 343 342 343 341 340 341 343 341 338 331 330 331 331 334 333 333 334 339 343 342 339 339 335 333 340 341 338 335 340 338 343 346 347 346 343 338
350 345 343 344 345 344 344 343 341 342 342 342 342 342 340 333 332 342 335 334 329 332 330 328 329 336 339 336 334 334 335 340 341 344 339 337 337 341 345 345 338 337 331
348 346 344 343 342 341 340 338 336 334 336 339 339 336 332 333 344 336 334 339 342 330 325 324 328 329 330 332 333 337 340 341 342 346 349 348 343 341 336 339 336 332 338
348 348 347 338 333 331 337 334 334 334 336 337 335 335 341 341 337 330 340 337 337 332 323 323 337 338 329 337 337 337 335 338 344 347 346 347 345 338 335 333 335 339 336
348 349 343 333 332 335 342 345 343 340 342 341 341 341 342 338 331 335 340 338 334 341 330 326 330 334 334 333 333 332 335 343 345 345 344 346 345 340 338 340 342 342 331
348 347 338 333 338 334 335 341 342 341 342 342 342 342 342 341 336 340 332 335 329 337 337 332 334 339 338 334 333 332 334 344 346 344 347 346 343 336 338 339 337 337 322
345 346 341 338 335 340 342 339 336 338 339 343 342 342 342 340 340 337 334 337 332 338 339 340 340 338 337 337 337 331 339 341 342 344 345 345 340 338 335 337 336 324 323
345 344 346 344 338 340 334 332 331 332 333 341 342 342 341 341 341 337 337 339 336 334 337 339 339 339 336 335 333 330 340 345 343 344 346 341 336 337 336 337 330 324 326
342 345 347 346 343 334 337 341 341 342 340 342 339 339 340 340 338 335 335 336 338 333 335 339 339 338 336 335 335 332 341 344 343 344 346 341 337 336 336 337 331 332 335
343 345 348 347 347 346 345 343 343 342 342 340 339 341 341 338 338 340 339 337 337 337 334 338 338 338 337 337 337 340 340 341 341 344 344 336 335 336 336 335 335 332 333
343 345 346 347 346 346 348 344 343 343 338 340 341 343 347 347 349 350 344 338 338 336 335 337 336 335 335 337 337 341 342 340 342 343 338 338 333 331 335 335 335 336 333
343 344 344 347 347 346 348 346 349 347 348 349 346 349 348 349 349 347 340 338 339 339 338 340 343 345 345 344 346 346 344 341 339 343 334 337 328 332 329 336 333 334 334
343 343 343 347 345 349 346 350 346 350 349 351 349 350 347 346 347 349 344 345 341 345 345 342 346 347 348 347 344 345 343 341 340 343 333 333 333 326 330 337 330 331 329
343 343 343 347 346 350 345 347 347 347 348 347 349 349 348 350 349 348 348 348 348 349 348 347 347 347 346 347 344 345 344 343 342 343 327 327 331 332 332 331 323 323 331
343 343 345 346 348 350 348 348 346 347 345 349 348 349 349 350 351 350 350 349 350 347 348 348 345 348 346 344 344 345 342 341 341 345 336 328 326 327 328 328 324 323 322
343 343 345 347 348 349 350 349 348 346 349 346 348 349 350 351 352 350 350 349 348 349 348 348 348 344 344 345 344 344 343 343 341 344 344 334 332 330 327 327 326 325 324
342 342 346 347 347 349 351 348 348 350 346 349 348 347 353 351 347 351 350 350 349 350 346 344 343 344 346 342 344 342 343 345 342 341 345 345 341 337 332 334 335 337 335
341 342 346 345 346 348 349 349 349 347 348 349 350 350 352 350 348 351 351 351 349 350 348 347 347 346 345 341 343 343 343 344 342 343 341 344 347 346 342 336 331 332 332
341 343 345 345 345 348 350 348 350 349 349 349 350 351 352 351 349 352 352 351 348 349 346 346 347 345 345 342 343 342 341 339 342 344 344 344 343 343 348 346 334 332 331
342 344 345 345 344 347 349 348 349 349 349 350 349 350 345 353 351 353 352 351 347 347 345 345 346 343 341 343 341 342 344 344 339 340 343 344 343 342 343 343 343 348 342
343 345 345 345 344 346 347 347 347 347 348 348 348 352 350 353 352 349 352 349 350 348 349 345 344 341 340 339 338 340 340 339 341 340 341 341 341 343 343 344 344 348 346
344 345 345 345 344 345 345 345 346 346 347 348 348 351 352 351 353 351 353 346 346 350 351 348 349 344 341 340 340 340 339 337 339 340 340 341 342 344 344 344 343 339 342
344 346 346 344 345 342 343 344 346 347 349 348 351 350 351 352 352 355 347 352 347 350 350 350 346 350 344 339 342 343 341 340 341 340 342 343 344 344 343 344 345 346 343
345 346 346 345 344 340 340 342 345 347 346 347 348 347 351 351 352 352 352 353 351 349 352 352 349 351 350 341 338 342 344 344 345 342 342 344 345 344 344 344 345 346 346
347 345 347 346 343 342 335 341 344 346 346 346 346 349 349 350 352 351 352 353 352 350 351 353 351 348 346 348 340 340 342 343 341 345 344 344 344 344 344 346 344 345 345
349 347 347 347 344 336 335 335 343 344 345 344 345 350 349 351 351 352 351 352 352 354 350 351 349 343 351 347 346 342 342 343 345 344 344 343 344 344 343 343 344 344 345
Wind_Speed
20 19 19 15 13 15 16 13 11 11 11 8 8 7 6 6 6 6 6 6 6 5 4 3 5 5 6 8 9 10 11 12 13 14 14 15 16 17 17 19 18 13 14
23 22 20 17 17 15 13 11 10 10 10 8 6 5 4 5 6 8 8 7 8 8 6 5 5 5 5 6 8 9 10 11 13 16 16 15 15 13 15 15 10 14 14
24 22 21 18 17 15 13 11 10 9 9 8 7 5 5 6 7 6 8 9 9 8 8 7 8 8 8 8 8 9 10 12 13 13 16 12 13 13 12 11 12 13 15
23 20 18 17 16 15 13 12 11 10 9 9 7 8 8 8 7 9 9 8 7 10 10 11 12 10 12 12 11 11 12 16 14 15 12 13 10 13 12 13 14 14 14
23 20 19 18 15 15 14 13 10 11 9 10 11 10 9 9 10 9 9 9 10 11 12 14 14 13 14 12 12 13 16 19 17 9 12 15 9 13 13 13 12 15 12
24 18 20 17 15 14 13 13 12 11 11 11 11 10 11 11 11 10 9 9 10 11 11 14 14 13 13 13 13 14 19 19 16 11 11 10 9 11 11 10 11 11 11
21 19 19 16 14 14 13 12 12 11 12 13 12 11 11 11 11 9 9 10 11 12 13 14 14 13 12 11 12 14 18 20 12 7 11 7 11 11 11 11 11 11 12
20 19 17 17 15 13 12 12 13 12 13 13 12 12 12 12 10 9 9 10 10 11 11 12 13 13 13 13 14 15 20 16 7 11 12 8 11 10 10 11 11 13 14
19 19 16 14 15 13 14 13 13 12 13 13 12 13 13 11 11 11 11 11 11 11 12 11 11 12 13 14 15 16 19 16 12 12 11 8 11 10 10 10 11 12 11
21 18 17 14 13 12 12 13 13 12 13 13 13 14 13 13 11 12 10 10 11 11 12 11 11 12 12 13 16 20 20 15 8 15 7 8 10 9 9 10 10 10 9
20 19 17 15 13 13 11 12 12 13 14 14 16 17 15 7 10 9 7 9 11 12 12 12 12 12 13 14 18 17 15 8 8 11 8 10 9 9 9 9 9 9 8
22 19 18 15 15 14 12 10 10 10 11 11 12 12 12 7 10 6 7 9 11 12 12 12 12 7 16 13 10 13 11 8 8 8 7 9 8 9 9 9 9 7 7
23 20 18 17 15 15 13 13 10 11 9 8 11 10 9 6 7 9 6 7 9 11 9 9 5 7 12 13 10 14 5 10 8 8 6 8 8 8 9 8 7 7 6
24 21 19 17 16 11 13 13 11 10 10 8 8 10 7 8 7 0 8 5 6 3 7 5 4 7 6 5 17 8 9 6 8 5 5 5 6 6 7 6 5 5 5
24 22 20 18 17 12 14 11 11 10 10 11 7 7 2 9 5 4 3 3 4 7 5 2 6 7 4 5 8 6 7 7 6 5 5 5 5 5 4 4 5 5 4
25 23 21 18 17 15 12 13 11 11 11 8 8 7 8 7 5 3 3 5 5 1 10 7 5 11 6 5 6 9 7 8 6 3 2 7 5 4 4 4 3 4 3
25 23 21 19 17 15 12 14 12 10 10 10 13 7 4 5 6 8 4 5 4 1 4 3 6 6 6 4 10 4 5 4 6 6 0 6 6 8 5 2 1 2 2
25 23 21 19 18 16 14 15 12 10 11 7 8 5 5 0 5 6 3 2 4 4 9 6 6 5 5 7 9 11 6 6 3 5 4 2 1 2 5 7 3 1 1
26 24 23 21 19 17 15 14 13 12 10 9 7 3 7 1 1 6 4 4 8 3 4 4 6 8 4 7 8 6 5 2 4 7 2 3 3 2 1 7 6 4 4
26 24 23 22 20 19 15 15 14 11 10 8 7 8 4 5 3 6 4 5 9 5 6 5 6 4 5 6 5 8 5 3 4 2 4 3 3 2 2 3 4 6 9
27 26 26 25 24 22 18 17 16 14 13 10 9 7 7 6 5 6 6 6 6 5 6 8 5 5 4 3 5 4 3 3 4 3 3 3 1 1 2 3 2 5 10
30 28 28 28 27 25 20 18 16 15 13 11 9 9 9 8 7 5 5 3 7 4 6 7 4 10 4 5 9 7 7 6 5 4 3 3 3 3 2 3 3 4 6
32 31 30 31 30 28 21 20 18 16 13 13 11 9 10 9 8 6 8 3 4 7 5 5 6 5 7 5 6 3 2 4 7 3 3 3 2 2 3 4 3 5 4
35 31 30 31 32 29 29 22 22 19 18 15 13 12 12 11 10 8 7 6 5 7 6 5 4 3 4 6 6 3 0 4 1 4 3 3 4 2 4 4 5 7 6
35 34 32 32 33 30 33 25 24 21 18 15 14 15 13 12 11 9 7 7 6 4 6 7 7 10 4 3 5 6 3 2 3 5 8 5 2 2 3 4 4 5 9
35 34 33 34 36 36 34 33 28 25 21 17 18 15 14 12 12 12 10 9 7 6 6 5 6 9 8 9 6 7 6 5 6 4 3 2 2 4 3 5 7 7 8
Wind_Direction
158 164 153 147 148 149 147 137 127 140 156 141 133 121 102 88 83 87 88 88 82 85 88 97 106 85 91 97 92 87 89 90 83 72 75 84 88 92 91 86 69 84 86
147 155 149 148 149 144 145 144 133 125 138 143 132 121 109 90 82 95 82 75 77 75 80 94 115 128 112 112 102 95 92 95 86 83 80 72 88 92 92 101 103 86 87
143 151 144 146 142 144 145 142 141 143 145 149 154 149 128 111 106 94 89 85 71 62 75 87 90 104 104 119 110 100 101 99 90 70 86 76 80 88 92 95 87 87 91
142 144 148 145 146 144 140 139 138 140 144 145 141 136 121 116 100 99 97 86 73 69 78 95 101 95 104 107 107 106 101 100 88 84 76 91 77 80 81 83 88 85 82
144 142 156 145 143 139 133 125 126 131 129 126 128 127 123 110 111 102 92 88 79 80 76 94 106 108 101 102 107 104 104 93 79 84 89 92 82 85 89 89 89 91 86
141 150 143 144 140 136 135 133 125 120 115 123 122 127 121 120 113 102 93 95 89 84 89 99 104 101 103 101 98 96 110 96 82 81 87 84 120 95 95 95 91 89 84
147 147 141 138 135 135 134 132 129 122 122 121 122 122 120 118 113 107 97 90 97 98 88 99 95 96 94 97 96 98 108 91 99 112 119 96 97 96 99 97 91 86 89
149 142 141 139 137 137 136 130 126 125 129 124 122 120 123 119 112 98 94 96 99 107 94 100 97 94 87 91 91 95 106 103 105 95 90 101 97 95 96 93 87 92 93
148 149 145 142 142 139 135 131 129 129 124 120 123 123 123 113 104 99 91 94 99 102 107 103 103 101 97 96 89 90 104 95 81 102 99 82 92 95 96 95 92 97 95
152 149 145 143 135 130 134 135 133 134 125 124 122 115 111 107 97 81 79 90 94 107 115 108 101 107 105 95 91 91 89 83 101 99 103 104 94 96 97 98 99 101 101
157 153 152 149 139 143 145 138 136 128 120 118 113 101 97 100 95 83 139 94 97 106 115 111 102 116 112 93 88 89 82 88 91 111 98 104 95 97 100 103 102 107 103
161 158 156 156 150 132 148 115 131 119 119 116 125 100 103 136 128 124 102 96 98 102 111 105 107 128 130 107 75 97 89 98 98 90 109 112 101 106 101 107 99 103 97
166 162 161 157 151 152 166 142 143 133 134 144 146 109 143 131 108 109 78 77 97 83 102 102 61 21 69 104 68 75 108 99 109 107 103 111 109 106 115 116 103 102 95
169 166 165 163 161 152 145 149 152 154 148 145 156 134 160 132 133 97 128 134 158 108 145 154 51 97 74 65 111 89 99 106 108 104 93 101 119 115 115 116 105 108 114
172 170 170 169 166 162 155 158 157 157 150 156 163 155 204 140 150 156 136 135 140 162 138 54 102 109 135 113 112 102 105 93 98 118 63 81 105 113 111 108 106 116 126
175 175 174 173 172 169 158 163 163 161 159 153 160 184 172 170 174 168 125 125 149 16 187 149 162 155 101 148 123 121 80 114 105 85 22 41 63 88 106 111 119 116 110
179 179 178 175 175 175 167 169 162 172 158 173 187 212 155 186 141 146 146 136 151 84 163 120 125 103 130 109 106 136 96 126 100 109 48 353 24 37 20 29 106 135 127
180 183 181 178 181 177 174 170 168 181 166 179 157 162 165 59 152 122 130 183 157 182 104 166 164 185 104 83 98 117 105 136 124 130 133 144 316 326 349 6 353 352 278
184 185 184 181 185 181 181 174 171 189 166 168 164 202 153 56 91 139 144 179 113 135 138 147 199 118 126 135 138 119 132 156 172 132 113 150 187 332 301 331 358 14 352
188 189 185 186 188 186 188 176 176 189 172 173 171 180 222 168 209 118 160 161 122 149 158 147 116 116 100 99 220 109 120 127 137 161 157 180 187 201 188 300 302 339 343
191 192 189 188 191 187 187 183 185 186 182 184 189 191 198 173 178 144 142 146 147 160 152 145 138 128 123 147 105 123 138 109 190 160 163 157 203 156 229 248 248 305 313
193 194 193 191 195 190 187 186 187 184 189 190 194 194 184 186 187 172 153 178 157 186 175 187 213 177 133 184 160 167 147 156 152 163 170 196 232 223 239 298 236 238 219
196 196 197 195 199 196 187 185 187 190 194 196 186 198 195 191 191 179 186 153 216 170 190 172 191 226 161 195 228 263 40 209 142 185 191 210 229 221 240 260 252 254 274
200 199 200 200 201 203 182 194 192 187 191 195 195 196 198 187 190 217 187 193 188 188 188 193 179 216 169 156 203 216 160 80 8 138 177 210 232 210 237 224 258 270 267
200 202 201 204 203 200 201 191 199 190 194 195 194 194 187 196 190 193 202 210 200 184 192 191 197 178 204 154 179 172 168 163 250 327 210 160 208 218 253 276 246 256 281
201 203 203 206 208 205 208 194 201 201 193 200 198 200 200 204 210 200 204 212 214 191 220 196 196 176 183 192 178 186 192 210 200 244 288 226 283 267 250 261 261 259 257